Regional Weather Roundup
Issued by NWS Cleveland, OH

Home | Current Version | Previous Version | Text Only | Print | Product List | Glossary Off
Versions: 1 2 3 4 5 6 7 8 9 10 11 12 13 14 15 16 17 18 19 20 21 22 23 24 25 26 27 28 29 30 31 32 33 34 35 36 37 38 39 40 41 42 43 44 45 46 47 48 49 50

445
ASUS41 KCLE 081702
RWRCLE
OHIO REGIONAL WEATHER ROUNDUP
NATIONAL WEATHER SERVICE CLEVELAND, OH
1200 PM EST MON FEB 08 2016

NOTE: "FAIR" INDICATES FEW OR NO CLOUDS BELOW 12,000 FEET WITH NO
SIGNIFICANT WEATHER AND/OR OBSTRUCTIONS TO VISIBILITY.

OHZ001>008-015>018-024>027-034-035-043-044-081800-
   NORTHWEST OHIO

CITY           SKY/WX    TMP DP  RH WIND       PRES   REMARKS
DEFIANCE       CLOUDY    41  30  65 NW10      29.62S
FINDLAY        CLOUDY    43  28  55 W12       29.59F
TOLEDO EXPRESS CLOUDY    38  29  70 W8        29.61S
TOLEDO EXEC    PTSUNNY   40  28  62 NW8       29.61F
LIMA           PTSUNNY   39  30  70 NW12      29.60F
$$

OHZ009>014-019>023-028>033-038-089-081800-
   NORTHEAST OHIO

CITY           SKY/WX    TMP DP  RH WIND       PRES   REMARKS
CLE-HOPKINS    SNOW      33  31  92 SW3       29.62F VSB 1/2
CLE-LAKEFRONT  LGT SNOW  34  32  92 SW5       29.60S VSB 3/4 WCI  30
CUY CO. ARPT   LGT SNOW  36  34  93 CALM      29.60S
LORAIN-ELYRIA  SNOW      32  31  96 CALM      29.60S VSB 1/4
ASHTABULA      CLOUDY    41  27  57 SE8       29.59F
AKRON-CANTON   LGT SNOW  33  30  88 S7        29.58F VSB 1   WCI  27
WOOSTER        SNOW      33  32  96 CALM      29.58F VSB 1/2
MANSFIELD      LGT SNOW  33  32  96 NW3       29.58S FOG
YOUNGSTOWN     CLOUDY    40  26  57 SE10      29.59F
$$

OHZ042-051>053-060>062-070>072-077>081-081800-
  SOUTHWEST OHIO

CITY           SKY/WX    TMP DP  RH WIND       PRES   REMARKS
CINC-COVINGTON CLOUDY    37  32  82 W7        29.66S
CINC-LUNKEN    CLOUDY    38  32  79 W7        29.68F
HAMILTON       CLOUDY    39  31  72 W10       29.67F
DAYTON         CLOUDY    38  32  79 W10       29.63R
WRIGHT-PAT AFB NOT AVBL
DAYTON GENERAL MIX PCPN  35  32  88 W8        29.63S WCI  29
WILMINGTON     CLOUDY    33  32  96 W9        29.63S FOG     WCI  25
$$

OHZ036-037-039>041-045>050-054>059-063>069-073>076-082>088-081800-
  CENTRAL AND SOUTHEAST OHIO

CITY           SKY/WX    TMP DP  RH WIND       PRES   REMARKS
COLUMBUS       CLOUDY    37  36  96 W6        29.61S
OSU AIRPORT    CLOUDY    38  34  85 CALM      29.60F
BOLTON FIELD   NOT AVBL
RICKENBACK AFB NOT AVBL
NEWARK         LGT RAIN  36  33  89 W5        29.60S
MARION         CLOUDY    38  31  76 NW5       29.61S
LANCASTER      FLURRIES  35  33  92 W7        29.62S WCI  29
ZANESVILLE     LGT SNOW  36  32  85 S6        29.60F FOG
NEW PHILLY     SNOW      33  32  96 SE6       29.60F VSB 1/2 WCI  28
$$




USA.gov is the U.S. government's official web portal to all federal, state and local government web resources and services.